User: anonymous   Login
Location: Unspecified
(0.0000°N, 0.0000°E)
Time: 20:01:06
(UTC+00:00)
Language:

HO-68 - Orbit

View from above orbital plane
View from above orbital plane
View from above satellite
View from above satellite

Ground track
Ground track

The orbit data is extracted from the following two-line orbital elements,

1 36122U 09072B   15030.36871078 -.00000060  00000-0 -43517-4 0  3469
2 36122 100.2155 079.9749 0007695 075.9961 284.2008 13.16323521246327
Epoch (UTC): 30 January 2015 08:50:56
Eccentricity: 0.0007695
inclination: 100.2155°
perigee height: 1193 km
apogee height: 1204 km
right ascension of ascending node: 79.9749°
argument of perigee: 75.9961°
revolutions per day: 13.16323521
mean anomaly at epoch: 284.2008°
orbit number at epoch: 24632

The dashed part of the orbit path shows where the satellite is in the earth's shadow,  

DLR